This demonstration page uses our WeatherBlox Daily Observations layout. Learn more.

Left ArrowRight Arrow

39.92423, -83.80882

Hourly Observations for November 9, 2018

Temp ( °F °C ) Dew Point ( °F °C ) Humidity (%) Winds ( mph kmh ) Pressure ( in mb ) Visibility ( mi km ) Precip ( " mm )
12:56 am 00:56 Cloudy 38 3.3 32 undefined 79 79 NE 12 19 30.19 1022 10 16.0934 N/A
1:56 am 01:56 Cloudy 37 2.8 32 undefined 82 82 ENE 17 28 30.13 1020 10 16.0934 N/A
2:56 am 02:56 Cloudy with Light Snow 35 1.7 32 undefined 89 89 NNE 7 11 30.16 1021 4 6.43736 N/A
3:51 am 03:51 Cloudy with Light Snow 34 1 34 1 100 100 N 7 11 30.18 1022 2 3.21868 0.03 0.762
3:56 am 03:56 Cloudy with Light Snow 33 0.6 33 0.6 100 100 N 7 11 30.14 1021 2.5 4.02335 0.03 0.762
4:05 am 04:05 Cloudy with Light Snow 34 1 34 1 100 100 NNE 9 15 30.15 1021 3 4.82802 N/A
4:41 am 04:41 Cloudy with Light Rain 34 1 34 1 100 100 NE 8 13 30.12 1020 4 6.43736 0.01 0.254
4:49 am 04:49 Cloudy with Light Rain 34 1 34 1 100 100 NE 10 17 30.09 1019 4 6.43736 0.01 0.254
4:56 am 04:56 Cloudy with Light Rain 33 0.6 33 0.6 100 100 ENE 10 17 30.06 1018 4 6.43736 0.01 0.254
5:32 am 05:32 Cloudy with Light Rain 34 1 34 1 100 100 NE 8 13 30.09 1019 6 9.65604 0.01 0.254
5:56 am 05:56 Cloudy with Light Rain 34 1.1 34 1.1 100 100 N 8 13 30.06 1018 7 11.26538 0.02 0.508
6:56 am 06:56 Cloudy with Mist and Fog 34 1.1 34 1.1 100 100 N 6 9 30.05 1018 4 6.43736 0.01 0.254
7:12 am 07:12 Cloudy with Light Wintry Mix 34 1 34 1 100 100 N 5 7 30.09 1019 3 4.82802 N/A
7:23 am 07:23 Cloudy with Light Wintry Mix 34 1 34 1 100 100 NNE 7 11 30.06 1018 1.75 2.816345 0.01 0.254
7:42 am 07:42 Cloudy with Light Rain 34 1 34 1 100 100 N 8 13 30.06 1018 2.5 4.02335 0.01 0.254
7:54 am 07:54 Cloudy with Light Rain 34 1 34 1 100 100 N 5 7 30.06 1018 3 4.82802 0.01 0.254
7:56 am 07:56 Cloudy with Light Rain 34 1.1 34 1.1 100 100 NNE 6 9 30.03 1017 3 4.82802 0.01 0.254
8:56 am 08:56 Cloudy with Mist and Fog 35 1.7 35 1.7 100 100 N 3 6 30.02 1017 6 9.65604 0.02 0.508
9:56 am 09:56 Cloudy 36 2.2 36 2.2 100 100 WNW 6 9 30.02 1017 9 14.48406 N/A
10:56 am 10:56 Cloudy 37 2.8 36 2.2 96 96 W 6 9 30.01 1016 9 14.48406 0.02 0.508
11:56 am 11:56 Cloudy with Mist and Fog 38 3.3 37 2.8 97 97 WSW 8 13 30.01 1016 6 9.65604 N/A
12:56 pm 12:56 Cloudy 40 4.4 39 3.9 97 97 W 14 22 30 1016 8 12.87472 0.01 0.254
1:56 pm 13:56 Cloudy 41 5 39 3.9 93 93 W 12 19 30 1016 10 16.0934 0.01 0.254
2:04 pm 14:04 Cloudy 41 5 39 4 93 93 W 10 17 30 1016 10 16.0934 N/A
2:56 pm 14:56 Cloudy 41 5 37 2.8 86 86 W 15 24 30 1016 10 16.0934 N/A
3:07 pm 15:07 Cloudy 41 5 37 3 87 87 W 17 28 30 1016 10 16.0934 0.01 0.254
3:56 pm 15:56 Cloudy 40 4.4 36 2.2 86 86 W 13 20 30.02 1017 10 16.0934 0.01 0.254
4:56 pm 16:56 Cloudy 39 3.9 35 1.7 86 86 W 20 31 30.04 1017 10 16.0934 0.01 0.254
5:56 pm 17:56 Cloudy with Light Rain 37 2.8 34 1.1 89 89 W 15 24 30.06 1018 10 16.0934 N/A
6:08 pm 18:08 Cloudy 37 3 34 1 87 87 W 17 28 30.09 1019 10 16.0934 N/A
6:56 pm 18:56 Cloudy 35 1.7 31 -0.6 85 85 W 21 33 30.09 1019 10 16.0934 N/A
7:56 pm 19:56 Cloudy 33 0.6 28 -2.2 82 82 W 17 28 30.11 1020 10 16.0934 N/A
8:56 pm 20:56 Cloudy 32 undefined 27 -2.8 82 82 W 21 33 30.13 1020 10 16.0934 N/A
10:37 pm 22:37 Cloudy 30 -1 25 -4 80 80 W 23 37 30.18 1022 9 14.48406 N/A
10:56 pm 22:56 Cloudy 31 -0.6 23 -5 72 72 W 17 28 30.15 1021 10 16.0934 N/A
11:56 pm 23:56 Mostly Cloudy 30 -1.1 22 -5.6 72 72 W 18 30 30.16 1021 10 16.0934 N/A

Powered by AerisWeather